[[{"header":{"parameterUnit":"m.s-1","parameterCategory":1,"la1":30.2991,"la2":30.254,"lo1":-89.0895,"lo2":-89.0444,"dy":0.0017,"dx":0.0017,"nx":28,"ny":28,"refTime":"2024-12-11T09:00:00:Z","depth":0,"parameterNumber":2,"parameterNumberName":"U-component_of_WINDS"},"data":[0,0,0,0,0,0,0,0,0,0,0,0,0,0,0,0,0,0,0,0,0,0,0,0,0,0,0,0,0,0,0,0,0,0,0,0,0,0,0,0,0,0,0,0,0,0,0,0,0,0,0,0,0,0,0,0,0,0,4.4466,4.4467,0,4.4554,4.4555,4.4556,4.4543,4.4541,4.454,4.4538,4.4627,4.4631,4.4635,0,0,0,0,0,0,0,0,0,0,0,0,0,4.4287,4.4291,4.4466,4.4467,4.4469,4.4554,4.4555,4.4557,4.4543,4.4541,4.4539,4.4537,4.4626,4.4631,4.4635,0,0,0,0,0,0,0,0,0,0,0,0,0,4.4369,4.4292,4.4466,4.4472,4.4473,4.4554,4.4555,4.4557,4.4543,4.4541,4.4539,4.4537,4.4625,4.463,4.4636,4.4716,0,0,4.4653,4.4656,0,0,0,0,0,0,0,0,4.4365,4.4376,4.447,4.4472,4.4473,4.4535,4.4525,4.461,4.4544,4.4517,4.4538,4.4535,4.4599,4.4606,4.4628,4.472,4.4724,4.4654,4.4657,4.466,4.4661,0,0,0,0,0,0,0,4.4359,4.4372,4.4501,4.4471,4.4474,4.4471,4.448,4.4541,4.4569,4.4519,4.4518,4.4529,4.4599,4.4622,4.463,4.4725,4.4654,4.4659,4.4662,4.4664,4.4891,4.4893,0,0,0,0,0,0,4.4352,4.4367,4.4498,4.4504,4.4412,4.4476,4.4486,4.4518,4.4568,4.4574,4.4531,4.4528,4.4614,4.4623,4.4633,4.4732,4.466,4.4665,4.4668,4.4888,4.4891,4.4894,0,0,0,0,0,0,4.4348,4.4363,4.4495,4.4435,4.4452,4.4481,4.4517,4.4521,4.4544,4.4577,4.4582,4.4549,4.4612,4.4625,4.4696,4.4734,4.4667,4.4673,4.4885,4.4889,4.4893,4.4929,0,0,0,0,0,0,4.4343,4.4362,4.4392,4.4436,4.4455,4.4556,4.4519,4.4524,4.4554,4.4551,4.4596,4.4601,4.4611,4.4688,4.4702,4.4741,4.4677,4.4882,4.4887,4.4892,4.4924,4.4933,4.4941,0,0,0,0,0,4.4336,4.4398,4.4394,4.441,4.4494,4.4558,4.4569,4.458,4.4557,4.4588,4.461,4.46,4.4728,4.4695,4.4711,4.4752,4.4879,4.4886,4.4891,4.492,4.4932,4.4941,0,0,0,0,0,0,4.4357,4.4404,4.44,4.4477,4.4514,4.4556,4.4595,4.4591,4.4635,4.463,4.4642,4.4652,4.4725,4.4746,4.4708,4.4834,4.4801,4.481,4.4817,4.4828,4.4837,4.483,4.4682,0,0,0,0,0,4.4371,4.442,4.4458,4.4523,4.4542,4.4566,4.4594,4.46,4.4638,4.4653,4.468,4.4718,4.4767,4.4799,4.4845,4.4928,4.4938,4.4964,4.4972,4.4979,4.4987,4.5034,4.5047,4.4914,4.4914,4.4913,0,0,4.4399,4.4431,4.4461,4.4528,4.4557,4.4608,4.4579,4.4633,4.4671,4.4661,4.4731,4.4752,4.4795,4.4873,4.4908,4.4892,4.5027,4.4987,4.4992,4.4996,4.5041,4.5054,4.5065,4.4918,4.4917,4.4916,0,0,4.4478,4.4506,4.4564,4.4595,4.464,4.4656,4.467,4.4713,4.4727,4.4797,4.4792,4.4837,4.4921,4.4953,4.4979,4.5073,4.5066,4.5088,4.5132,4.5178,4.5188,4.5198,4.5232,4.5244,4.5096,4.5096,4.5096,0,4.4507,4.4584,4.4595,4.4651,4.4681,4.4676,4.4736,4.4765,4.4822,4.4844,4.4825,4.4932,4.496,4.5046,4.507,4.5091,4.5108,4.5082,4.5186,4.5195,4.5204,4.5237,4.525,4.5098,4.5098,4.5098,4.5098,0,4.4619,4.4672,4.4714,4.4771,4.4806,4.4863,4.4884,4.4918,4.4922,4.494,4.5012,4.5047,4.5102,4.5122,4.5125,4.521,4.5199,4.5183,4.515,4.5219,4.5251,4.5263,4.5102,4.5101,4.51,4.51,0,0,4.4711,4.4775,4.479,4.4817,4.4868,4.4909,4.4968,4.5022,4.5052,4.5092,4.5142,4.5215,4.5202,4.5232,4.5239,4.5279,4.5353,4.5259,4.526,4.5276,4.545,4.5461,4.5476,4.5349,4.5351,4.5353,4.5447,0,4.4794,4.4897,4.491,4.5002,4.5052,4.5049,4.51,4.5137,4.5157,4.5202,4.5224,4.5275,4.5253,4.5272,4.5312,4.5336,4.5388,4.5329,4.5396,4.5398,4.5385,4.5492,4.5504,4.559,4.5459,4.5461,4.5462,0,4.4905,4.4951,4.5047,4.5093,4.5115,4.516,4.5212,4.5256,4.5299,4.531,4.5346,4.5348,4.541,4.5375,4.546,4.542,4.5448,4.5464,4.5468,4.5474,4.5434,4.5502,4.5618,4.5631,4.5482,4.548,4.5479,0,4.4964,4.5049,4.5119,4.5142,4.5196,4.5229,4.5253,4.5294,4.5326,4.5372,4.5394,4.5446,4.5474,4.5515,4.5532,4.5505,4.5617,4.5583,4.5629,4.5629,4.5652,4.5651,4.5774,4.567,4.567,4.567,4.567,0,4.5056,4.5116,4.5146,4.5189,4.5256,4.5271,4.5338,4.5361,4.5398,4.5445,4.5446,4.5491,4.5511,4.5559,4.5573,4.5643,4.5655,4.5667,4.567,4.5667,4.5666,4.5685,4.568,4.5673,4.5672,4.5672,4.5671,0,4.5133,4.5155,4.5231,4.5278,4.5291,4.5339,4.5379,4.5421,4.5441,4.5501,4.5517,4.5548,4.5605,4.5626,4.5695,4.5705,4.5786,4.5784,4.5772,4.5772,4.5818,4.5813,4.5959,4.5979,4.5861,4.5862,4.5863,0,4.519,4.5236,4.5289,4.5321,4.5347,4.5399,4.5433,4.545,4.5485,4.5539,4.5575,4.5632,4.5679,4.5771,4.58,4.5854,4.5853,4.5901,4.5861,4.5858,4.5855,4.5852,4.5858,4.5908,4.5909,4.591,4.5911,0,4.529,4.53,4.5349,4.5402,4.5443,4.5486,4.5527,4.5554,4.5578,4.5618,4.5677,4.5713,4.5786,4.5843,4.5899,4.5924,4.5922,4.5923,4.5937,4.5935,4.5926,4.5932,4.5792,4.592,4.5919,4.5918,4.5918,4.5917,4.536,4.5401,4.5445,4.55,4.5534,4.5573,4.5616,4.5642,4.5691,4.5752,4.5759,4.5823,4.5867,4.5942,4.597,4.6021,4.6008,4.6028,4.6033,4.6037,4.6041,4.5918,4.6031,4.6031,4.6031,4.603,4.603,0,4.5461,4.5489,4.554,4.5599,4.5643,4.5638,4.5684,4.5721,4.5778,4.5819,4.5865,4.5934,4.5991,4.6025,4.6082,4.6116,4.6117,4.6131,4.6128,4.6135,4.6049,4.6032,4.6129,4.6129,4.6129,4.6129,4.6129,4.6129,4.5518,4.5589,4.5604,4.5692,4.5721,4.5784,4.5811,4.5848,4.5881,4.5958,4.6005,4.6028,4.6067,4.6127,4.6179,4.6188,4.6209,4.6224,4.6232,4.6151,4.614,4.6131,4.6115,4.6228,4.6228,4.6314,4.6314,4.6315]},{"header":{"parameterUnit":"m.s-1","parameterCategory":1,"la1":30.2991,"la2":30.254,"lo1":-89.0895,"lo2":-89.0444,"dy":0.0017,"dx":0.0017,"nx":28,"ny":28,"refTime":"2024-12-11T09:00:00:Z","depth":0,"parameterNumber":3,"parameterNumberName":"V-component_of_WINDS"},"data":[0,0,0,0,0,0,0,0,0,0,0,0,0,0,0,0,0,0,0,0,0,0,0,0,0,0,0,0,0,0,0,0,0,0,0,0,0,0,0,0,0,0,0,0,0,0,0,0,0,0,0,0,0,0,0,0,0,0,-6.767,-6.7671,0,-6.781,-6.7811,-6.7813,-6.7796,-6.7793,-6.7791,-6.7789,-6.7929,-6.7935,-6.794,0,0,0,0,0,0,0,0,0,0,0,0,0,-6.7386,-6.7392,-6.767,-6.7671,-6.7673,-6.781,-6.7811,-6.7813,-6.7796,-6.7793,-6.7791,-6.7788,-6.7927,-6.7934,-6.7941,0,0,0,0,0,0,0,0,0,0,0,0,0,-6.7516,-6.7393,-6.7669,-6.7681,-6.7684,-6.7809,-6.7812,-6.7814,-6.7797,-6.7793,-6.779,-6.7787,-6.7925,-6.7933,-6.7942,-6.8064,0,0,-6.7969,-6.7972,0,0,0,0,0,0,0,0,-6.7509,-6.7526,-6.7678,-6.7681,-6.7684,-6.7782,-6.7763,-6.7898,-6.7797,-6.7754,-6.7789,-6.7785,-6.7883,-6.7895,-6.7928,-6.807,-6.8076,-6.7969,-6.7975,-6.7978,-6.7981,0,0,0,0,0,0,0,-6.75,-6.752,-6.7725,-6.768,-6.7683,-6.7679,-6.7694,-6.7788,-6.7835,-6.7757,-6.7756,-6.7773,-6.7883,-6.792,-6.7931,-6.8078,-6.7969,-6.7977,-6.7982,-6.7986,-6.833,-6.8334,0,0,0,0,0,0,-6.7488,-6.7513,-6.7721,-6.7729,-6.7586,-6.7687,-6.7703,-6.7754,-6.7834,-6.7843,-6.7776,-6.7772,-6.7906,-6.7921,-6.7936,-6.8086,-6.7978,-6.7987,-6.7992,-6.8327,-6.8331,-6.8336,0,0,0,0,0,0,-6.7482,-6.7507,-6.7715,-6.7621,-6.7647,-6.7695,-6.7752,-6.7758,-6.7795,-6.7849,-6.7857,-6.7805,-6.7904,-6.7924,-6.8033,-6.8091,-6.7991,-6.7999,-6.8322,-6.8328,-6.8333,-6.8386,0,0,0,0,0,0,-6.7474,-6.7505,-6.7552,-6.7622,-6.7652,-6.781,-6.7756,-6.7763,-6.781,-6.7806,-6.7877,-6.7886,-6.7903,-6.802,-6.8042,-6.8101,-6.8005,-6.8317,-6.8325,-6.8332,-6.8379,-6.8393,-6.8404,0,0,0,0,0,-6.7464,-6.7559,-6.7554,-6.7579,-6.7712,-6.7813,-6.783,-6.7849,-6.7815,-6.7862,-6.7898,-6.7884,-6.8081,-6.8031,-6.8056,-6.8118,-6.8313,-6.8323,-6.8331,-6.8374,-6.839,-6.8404,0,0,0,0,0,0,-6.7492,-6.7569,-6.7564,-6.7685,-6.7743,-6.781,-6.7871,-6.7866,-6.7934,-6.7927,-6.7947,-6.7963,-6.8074,-6.8107,-6.805,-6.8242,-6.8192,-6.8206,-6.8216,-6.8233,-6.8245,-6.8235,-6.8013,0,0,0,0,0,-6.7513,-6.759,-6.7652,-6.7753,-6.7783,-6.7822,-6.7867,-6.7877,-6.7937,-6.7961,-6.8004,-6.8062,-6.8138,-6.8187,-6.8259,-6.8384,-6.84,-6.8439,-6.8452,-6.8462,-6.8474,-6.8545,-6.8563,-6.8364,-6.8364,-6.8364,0,0,-6.7556,-6.7607,-6.7654,-6.776,-6.7806,-6.7885,-6.7842,-6.7927,-6.7986,-6.7973,-6.808,-6.8114,-6.8181,-6.8299,-6.8353,-6.833,-6.8532,-6.8473,-6.8481,-6.8487,-6.8556,-6.8574,-6.8591,-6.837,-6.8369,-6.8368,0,0,-6.7675,-6.7721,-6.7811,-6.7859,-6.7931,-6.7957,-6.7978,-6.8047,-6.807,-6.8178,-6.8171,-6.8241,-6.8369,-6.8418,-6.846,-6.8601,-6.8591,-6.8623,-6.8689,-6.8758,-6.8774,-6.8788,-6.8839,-6.8857,-6.8635,-6.8635,-6.8635,0,-6.7719,-6.7838,-6.7858,-6.7945,-6.7992,-6.7987,-6.8079,-6.8124,-6.8215,-6.8248,-6.8221,-6.8384,-6.8429,-6.8559,-6.8594,-6.8627,-6.8654,-6.8615,-6.877,-6.8784,-6.8797,-6.8847,-6.8866,-6.8639,-6.8638,-6.8638,-6.8638,0,-6.789,-6.7973,-6.8037,-6.8128,-6.8182,-6.8271,-6.8304,-6.8357,-6.8363,-6.8392,-6.8503,-6.8556,-6.864,-6.8672,-6.8677,-6.8805,-6.8788,-6.8765,-6.8716,-6.882,-6.8867,-6.8886,-6.8644,-6.8643,-6.8642,-6.8641,0,0,-6.8029,-6.8131,-6.8155,-6.8197,-6.8276,-6.8341,-6.843,-6.8514,-6.856,-6.8623,-6.8699,-6.8809,-6.879,-6.8837,-6.8848,-6.8909,-6.9019,-6.8879,-6.888,-6.8904,-6.9165,-6.9182,-6.9204,-6.9013,-6.9017,-6.902,-6.9159,0,-6.8156,-6.8316,-6.8338,-6.8478,-6.8556,-6.8554,-6.8632,-6.8689,-6.8719,-6.8789,-6.8822,-6.8901,-6.8868,-6.8897,-6.8956,-6.8993,-6.9072,-6.8983,-6.9084,-6.9088,-6.9069,-6.9228,-6.9246,-6.9375,-6.9178,-6.9181,-6.9183,0,-6.8326,-6.8397,-6.8546,-6.8618,-6.8651,-6.8721,-6.8801,-6.8868,-6.8934,-6.8952,-6.9006,-6.9011,-6.9103,-6.9051,-6.9179,-6.9119,-6.9161,-6.9186,-6.9191,-6.9202,-6.9142,-6.9244,-6.9416,-6.9436,-6.9212,-6.921,-6.9207,0,-6.8415,-6.8547,-6.8654,-6.869,-6.8776,-6.8825,-6.8863,-6.8925,-6.8975,-6.9045,-6.9078,-6.9157,-6.92,-6.9262,-6.9287,-6.9246,-6.9415,-6.9364,-6.9433,-6.9433,-6.9469,-6.9466,-6.9652,-6.9495,-6.9495,-6.9494,-6.9494,0,-6.8556,-6.8647,-6.8696,-6.8761,-6.8865,-6.8889,-6.899,-6.9026,-6.9082,-6.9155,-6.9157,-6.9225,-6.9255,-6.9328,-6.9349,-6.9453,-6.9472,-6.949,-6.9494,-6.949,-6.9488,-6.9519,-6.9511,-6.95,-6.9498,-6.9497,-6.9497,0,-6.8672,-6.8708,-6.8825,-6.8897,-6.8918,-6.8991,-6.9053,-6.9117,-6.9147,-6.924,-6.9263,-6.931,-6.9397,-6.9429,-6.9533,-6.9547,-6.9669,-6.9665,-6.9647,-6.9649,-6.9717,-6.971,-6.9929,-6.996,-6.9781,-6.9783,-6.9784,0,-6.876,-6.8831,-6.8912,-6.8962,-6.9002,-6.9082,-6.9134,-6.9161,-6.9215,-6.9297,-6.9351,-6.9438,-6.9509,-6.9647,-6.969,-6.9771,-6.977,-6.9841,-6.9782,-6.9777,-6.9773,-6.9769,-6.9777,-6.9852,-6.9854,-6.9856,-6.9857,0,-6.8912,-6.8927,-6.9003,-6.9086,-6.9148,-6.9214,-6.9278,-6.9318,-6.9355,-6.9416,-6.9505,-6.9561,-6.9669,-6.9755,-6.9839,-6.9877,-6.9874,-6.9875,-6.9896,-6.9893,-6.988,-6.989,-6.9679,-6.987,-6.9869,-6.9868,-6.9867,-6.9867,-6.9018,-6.9082,-6.915,-6.9235,-6.9286,-6.9347,-6.9412,-6.9451,-6.9527,-6.9619,-6.963,-6.9726,-6.9792,-6.9904,-6.9947,-7.0023,-7.0003,-7.0032,-7.004,-7.0047,-7.0053,-6.9868,-7.0037,-7.0037,-7.0037,-7.0037,-7.0036,0,-6.9172,-6.9217,-6.9294,-6.9385,-6.9452,-6.9445,-6.9516,-6.9572,-6.9658,-6.972,-6.9791,-6.9895,-6.9979,-7.003,-7.0115,-7.0166,-7.0167,-7.0188,-7.0185,-7.0194,-7.0064,-7.0039,-7.0186,-7.0186,-7.0186,-7.0186,-7.0186,-7.0186,-6.926,-6.9369,-6.9393,-6.9527,-6.9571,-6.9667,-6.9709,-6.9765,-6.9815,-6.9932,-7.0003,-7.0036,-7.0094,-7.0184,-7.0262,-7.0274,-7.0306,-7.0329,-7.034,-7.0218,-7.0203,-7.0188,-7.0164,-7.0335,-7.0335,-7.0464,-7.0465,-7.0466]}]]